Hourly Data Report for May 04, 2021

WINNIPEG THE FORKS
MANITOBA
Current Station Operator: ECCC - MSC

49°53'18.008" N
97°07'46.007" W
230.00 m
5023262
71579
XWN

Download Data

Hourly Data (May 2021)
Hourly Data Report for May 4, 2021
TIME
LST
Temp Definition
°C
Dew Point Definition
°C
Rel Hum Definition
%
Precip. Amount Definition
mm

Wind Dir Definition
10's deg

Wind Spd Definition
km/h
Visibility Definition
km
Stn Press Definition
kPa
Hmdx Definition


Wind Chill Definition


Weather Definition


00:00 2.6 -6.7 50 0.0 32 4   99.16     LegendNANA
01:00 1.9 -6.6 53 0.0 31 4   99.17     LegendNANA
02:00 1.0 -6.5 57 0.0 31 5   99.16     LegendNANA
03:00 0.3 -6.2 62 0.0 33 7   99.16     LegendNANA
04:00 0.0 -6.2 63 0.0 31 2   99.18   -1 LegendNANA
05:00 -0.2 -5.8 66 0.0 32 8   99.21   -3 LegendNANA
06:00 0.8 -4.7 67 0.0 31 3   99.24     LegendNANA
07:00 2.5 -4.6 59 0.0 31 6   99.28     LegendNANA
08:00 4.3 -4.4 53 0.0 32 11   99.31     LegendNANA
09:00 5.5 -5.5 45 0.0 30 7   99.30     LegendNANA
10:00 7.1 -4.9 42 0.0 35 9   99.28     LegendNANA
11:00 7.1 -6.5 37 0.0 29 2   99.24     LegendNANA
12:00 8.3 -6.8 34 0.0 33 4   99.22     LegendNANA
13:00 8.1 -7.8 32 0.0 34 5   99.18     LegendNANA
14:00 8.7 -8.0 30 0.0 32 2   99.15     LegendNANA
15:00 9.7 -7.3 29 0.0 32 6   99.13     LegendNANA
16:00 9.6 -7.4 29 0.0 29 3   99.11     LegendNANA
17:00 10.5 -7.7 27 0.0 29 4   99.12     LegendNANA
18:00 9.5 -10.5 23 0.0 32 9   99.15     LegendNANA
19:00 8.0 -7.7 32 0.0 34 1   99.15     LegendNANA
20:00 6.5 -5.6 41 0.0   0   99.19     LegendNANA
21:00 4.7 -5.4 48 0.0   0   99.23     LegendNANA
22:00 3.8 -4.6 54 0.0 3 2   99.28     LegendNANA
23:00 2.7 -5.5 55 0.0   0   99.30     LegendNANA

Notes on Data Quality.

Legend

  • E = Estimated
  • M = Missing
  • NA = Not Available*
  • [empty] = Indicates an unobserved value
Date modified: